OneWeb SL0347

operational
NORAD ID: 49280 Int'l Des: 2021-090 Owner: ONEWEBN Country: UK Constellation: oneweb
LEOCIRCULARPOLARONEWEB_TYPE

OneWeb SL0347について

説明を読み込み中...

リアルタイム位置

3D地球を読み込み中...

次回通過

高度履歴

Altitude vs Time

uPlot chart will show altitude changes over time

軌道要素

1 49280U 21090B 25257.89601639 .00000089 00000-0 18588-3 0 9998
2 49280 87.9273 329.3292 0001714 89.1677 270.9653 13.20771512194704
Epoch: Sep 14, 2025 • Age: 19 hours

現在のステータス

高度 1185.6 km
速度 7.26 km/s
衛星直下点 -4.83°S, 94.82°W
打ち上げ日 Oct 14, 2021
運用期間 3.9 years
タイプ internet

技術仕様

分類 Payload
質量 148.00 kg
乾燥質量 140.00 kg
総質量 148.00 kg
長さ 1.30 m
直径 1.00 m
スパン 5.00 m
形状 Trapezoid+2 pan
製造者 ONEWUS
バスタイプ ARROW
フェーズステータス In Orbit
所有者/国 ONEWEBN/UK

大規模コンステレーション

Loading constellations...